THORAD DELTA 1 DEB, 8167

Orbit data source: Space-Track

THORAD DELTA 1 DEB, 8167 is space debris in SSO originally from a launch on Fri, 15 Nov 1974 UTC launched from the Air Force Western Test Range (AFWTR). Debris objects in space refer to the collection of defunct objects orbiting the Earth. Examples of debris include non-operational satellites, rocket bodies, and fragments generated from explosions, collisions, or faulty payload assembly.

Loading next visibility...
Identifier
8167, 1974-089AH
Orbit
SSO
Country
Flag of USUS
Related business
Manufacturer
Unknown
Mission
Spacecraft
Bus & Motor
Unknown
Mass
Unknown
Launch date (UTC)
1974-11-15 (51 years ago)
Launch vehicle
Unknown
Launch site
Air Force Western Test Range (AFWTR)
Object type
Payload
Rocket body
Debris
Shape & HBR
Unknown
Radar Cross Section
Small (<0.1 m²)

Expand to show TLE details & history
Last TLE update: 20 hours ago

TLE from 20 hours ago
0 THORAD DELTA 1 DEB
1 08167U 74089AH  25242.46999921  .00005126  00000-0  10261-1 0  9999
2 08167 101.3573  66.7595 0120871 215.4225 201.8865 13.32353344388631
Epoch: 2025-08-30T11:16Z
TLE epoch observation values (Epoch: 2025-08-30T11:16:47.931Z)
Latitude
55.21947°
Longitude
-98.0676°
Altitude
1,231.356 km
Speed
7.203 km/s
True Right ascension
03h 20m 08s
True Declination
55° 04' 06"
Sunlit
Object was in daylight at epoch
Visualization orbit readout
Latitude
Unknown
Longitude
Unknown
Altitude
Unknown
Speed
Unknown
Apparent Right ascension
Unknown
Apparent Declination
Unknown
Sunlit
N/A
Visualization observer readout
Local Sidereal Time
22:57:26
Azimuth
Unknown
Elevation
Unknown
Doppler factor
Unknown
Orbital elements
Apogee altitude
1,226.131 km
Perigee altitude
1,044.5 km
Semi-major axis
7,513.453 km
Eccentricity
0.01209
Inclination
101.3573°
RAAN
66.7595°
Arg. of periapsis
215.4225°
True anomaly
201.37733°
Mean anomaly
201.8865°
Eccentric anomaly
201.63121°
Mean motion
3.33261 °/min
Orbital period
108.02 mins
BSTAR
0.010261
Loading maneuver chart data...
Computing Atmospheric mass density...
Loading historical data...
Loading historical data...
Loading historical data...
Loading historical data...
Loading historical data...
Loading historical data...
Loading historical data...

Documentation

Showing up to 5 results
|